Location: Newark
(4.2170°N, 12.9170°E)
Time: 21:08:17
(UTC+00:00)

N. Korean satellite - Pass Details

Date: 16 November 2019
Orbit: 456 x 506 km, 97.2° (Epoch: 06 December)

Event Time Altitude Azimuth Distance (km) Brightness Sun altitude
Rises 04:26:50 0° 18° (NNE) 2,568 10.2 -7.5°
Reaches altitude 10° 04:28:57 10° 23° (NNE) 1,681 9.4 -7.0°
Maximum altitude 04:32:29 53° 101° (E) 603 7.5 -6.2°
Drops below altitude 10° 04:35:58 10° 178° (S) 1,659 9.6 -5.4°
Sets 04:38:03 0° 183° (S) 2,530 10.4 -4.9°
